Weather in Nevelskaya

Russia / Irkutsk Oblast     56°07′03″N   98°32′02″E
temp.,
°C
wind,
m/s
gust,
m/s
humid.,
%
clouds,
%
prec.,
mm/h
press.,
hPa
HPBL,
m
9 march, tue
tue923:00−6se51387100 0.0 1014414
02:00−8sse2394100 0.0 101279
05:00−8s2291100 0.0 101033
08:000sw41591100 0.4 10111205
11:00+1w7158899 0.4 10121388
14:00−2w81961100 0.7 10171810
17:00−5w7137786 0.0 10221607
20:00−9w3129084 0.1 1025544
10 march, wed
wed1023:00−11wsw26913 0.0 1027147
02:00−12wsw28892 0.0 1027183
05:00−13s23910 0.0 102641
08:00−13se229138 0.0 102527
11:00−7sse258489 0.0 1022247
14:00−2s258251 0.0 1019378
17:000wsw39791 0.0 10181280
20:00−6sw119032 0.0 101921
11 march, thu
thu1123:00−6sse129261 0.0 102021
02:00−7sse229378 0.0 101823
05:00−7se229493 0.0 101624
08:00−7ese259396 0.0 1013126
11:00−3se3783100 0.0 1010294
14:00+1ssw2689100 0.0 1009282
17:00+3wsw21393100 0.0 1011797
20:00+1sw3108491 0.0 1012249
12 march, fri
fri1223:000wsw31485100 0.0 1014652
02:00−1wnw41188100 0.0 1017839
05:00−6w31286100 0.0 1019583
08:00−9sw1290100 0.0 102021
11:00−4sse2684100 0.0 1019307
14:000sse4108082 0.0 1014638
17:00+1sse51189100 0.0 1010443
20:00−1w41290100 0.3 10111016
13 march, sat
sat1323:00−6wnw31488100 0.0 10151181
02:00−9w21186100 0.0 1016764
05:00−11w21088100 0.0 1016683
08:00−14w269398 0.0 1016189
11:00−12w3679100 0.0 1017740
14:00−10w4676100 0.0 1016904
17:00−10wnw4778100 0.0 10161053
20:00−13wnw31088100 0.1 1018795